TA2R-16 Weather Reports


Display with metric or nautical units.
time (UTC)temp
F
wind
direction
speed
MPH
gust
MPH
rain 1hr
in
rain 24hr
in
rain mn
in
humidity
%
barometer
mb
20260902210003 89 0 0.0 0.0 0.00 0.00 0.00 39 1004.9
20260902203002 89 0 0.0 0.0 0.00 0.00 0.00 38 1005.0
20260902200003 89 0 0.0 0.0 0.00 0.00 0.00 38 1005.3
20260902193002 90 0 0.0 0.0 0.00 0.00 0.00 37 1005.3
20260902190002 90 0 0.0 0.0 0.00 0.00 0.00 37 1005.7
20260902183002 90 0 0.0 0.0 0.00 0.00 0.00 36 1005.8
20260902180005 91 0 0.0 0.0 0.00 0.00 0.00 35 1005.8
20260902173001 92 0 0.0 0.0 0.00 0.00 0.00 35 1005.5
20260902170004 92 0 0.0 0.0 0.00 0.00 0.00 34 1005.3
20260902163002 93 0 0.0 0.0 0.00 0.00 0.00 33 1005.3
20260902160002 94 0 0.0 0.0 0.00 0.00 0.00 31 1005.4
20260902153001 95 0 0.0 0.0 0.00 0.00 0.00 30 1005.6
20260902150004 96 0 0.0 0.0 0.00 0.00 0.00 29 1005.3
20260902143002 96 0 0.0 0.0 0.00 0.00 0.00 28 1005.4
20260902140002 96 0 0.0 0.0 0.00 0.00 0.00 27 1005.4
20260902133002 97 0 0.0 0.0 0.00 0.00 0.00 26 1005.6
20260902130002 97 0 0.0 0.0 0.00 0.00 0.00 26 1005.8
20260902123002 97 0 0.0 0.0 0.00 0.00 0.00 26 1005.8
20260902120002 97 0 0.0 0.0 0.00 0.00 0.00 26 1006.1
20260902113001 96 0 0.0 0.0 0.00 0.00 0.00 29 1006.2
20260902110002 91 0 0.0 0.0 0.00 0.00 0.00 31 1006.4
20260902103002 91 0 0.0 0.0 0.00 0.00 0.00 33 1006.7
20260902100002 91 0 0.0 0.0 0.00 0.00 0.00 32 1006.8
20260902093003 92 0 0.0 0.0 0.00 0.00 0.00 30 1007.1
20260902090002 98 0 0.0 0.0 0.00 0.00 0.00 26 1007.1
20260902083002 99 0 0.0 0.0 0.00 0.00 0.00 28 1007.2
20260902080001 100 0 0.0 0.0 0.00 0.00 0.00 28 1007.2
20260902073001 101 0 0.0 0.0 0.00 0.00 0.00 26 1007.3
20260902070007 103 0 0.0 0.0 0.00 0.00 0.00 24 1007.2
20260902063002 105 0 0.0 0.0 0.00 0.00 0.00 23 1007.1
20260902060002 105 0 0.0 0.0 0.00 0.00 0.00 23 1006.9
20260902053002 105 0 0.0 0.0 0.00 0.00 0.00 22 1006.9
20260902050003 103 0 0.0 0.0 0.00 0.00 0.00 25 1006.7
20260902043001 97 0 0.0 0.0 0.00 0.00 0.00 30 1006.6
20260902040002 90 0 0.0 0.0 0.00 0.00 0.00 37 1006.5
20260902033003 88 0 0.0 0.0 0.00 0.00 0.00 39 1006.5
20260902030002 88 0 0.0 0.0 0.00 0.00 0.00 39 1006.2
20260902023002 88 0 0.0 0.0 0.00 0.00 0.00 39 1006.1
20260902020002 88 0 0.0 0.0 0.00 0.00 0.00 38 1006.0
20260902013016 88 0 0.0 0.0 0.00 0.00 0.00 38 1005.9
20260902010016 89 0 0.0 0.0 0.00 0.00 0.00 38 1006.0
20260902003002 89 0 0.0 0.0 0.00 0.00 0.00 37 1005.9
20260902000033 89 0 0.0 0.0 0.00 0.00 0.00 37 1005.7
20260901233003 89 0 0.0 0.0 0.00 0.00 0.00 37 1005.6
20260901230003 89 0 0.0 0.0 0.00 0.00 0.00 37 1005.7
20260901223005 89 0 0.0 0.0 0.00 0.00 0.00 37 1005.8
20260901220003 89 0 0.0 0.0 0.00 0.00 0.00 36 1005.6
20260901213002 89 0 0.0 0.0 0.00 0.00 0.00 36 1005.8